Regional Weather Roundup
Issued by NWS

Home | Current Version | Previous Version | Text Only | Print | Product List | Glossary On
Versions: 1 2 3 4 5 6 7 8 9 10 11 12 13 14 15 16 17 18 19 20 21 22 23 24 25 26 27 28
000
ASUS44 KBMX 211110
RWRAL

ALABAMA REGIONAL WEATHER ROUNDUP
NATIONAL WEATHER SERVICE BIRMINGHAM AL
500 AM CST SAT JAN 21 2017

NOTE: "FAIR" INDICATES FEW OR NO CLOUDS BELOW 12,000 FEET
WITH NO SIGNIFICANT WEATHER AND/OR OBSTRUCTIONS TO VISIBILITY.

THE REMARK "TC" DENOTES TEMPERATURE IN DEGREES CELSIUS.

ALZ001>011-014-016>018-020-211200-
NORTH ALABAMA

CITY           SKY/WX    TMP DP  RH WIND       PRES   REMARKS
MUSCLE SHOALS  CLOUDY    56  53  90 E3        29.71F
HUNTSVILLE     CLOUDY    58  57  97 E7        29.74F
DECATUR        MOCLDY    57  57 100 E7        29.73F
HALEYVILLE     FOG       58  58 100 SE5       29.75R VSB 1/4
GADSDEN        FOG       58  58 100 E7        29.75F VSB 1
$$

ALZ012-013-022-023-030>036-040>044-211200-
WEST CENTRAL ALABAMA

CITY           SKY/WX    TMP DP  RH WIND       PRES   REMARKS
TUSCALOOSA     LGT RAIN  64  64 100 E7G16     29.74R FOG
$$

ALZ015-024>027-033>036-040>044-211200-
CENTRAL ALABAMA

CITY           SKY/WX    TMP DP  RH WIND       PRES   REMARKS
BIRMINGHAM     CLOUDY    63  62  97 SE6       29.78R FOG
MONTGOMERY     TSTM      67  63  87 E7        29.69F FOG
SHELBY CO ARPT HVY RAIN  63  63 100 CALM      29.77R VSB 1/2
MAXWELL AFB    TSTM      66  66 100 W10       29.71R FOG
GREENVILLE     LGT RAIN  67  64  90 S9        29.71S
$$

ALZ019-021-028-029-037-038-045>048-211200-
EAST CENTRAL ALABAMA

CITY           SKY/WX    TMP DP  RH WIND       PRES   REMARKS
ANNISTON       CLOUDY    59  58  96 NE7       29.75F FOG
ALEXANDER CITY CLOUDY    67  66  97 E3        29.74F
AUBURN         CLOUDY    64  64 100 SE5       29.77F THUNDER
$$

ALZ051>064-211200-
SOUTHWEST ALABAMA

CITY           SKY/WX    TMP DP  RH WIND       PRES   REMARKS
MOBILE         CLOUDY    72  68  87 S22G30    29.71R
BROOKLEY FIELD CLOUDY    70  70 100 S9G17     29.71F FOG
EVERGREEN      CLOUDY    69  67  93 S12       29.71F
$$

ALZ049-050-065>069-211200-
SOUTHEAST ALABAMA

CITY           SKY/WX    TMP DP  RH WIND       PRES   REMARKS
DOTHAN         LGT RAIN  67  67 100 S12       29.80S
OZARK          CLOUDY    67  67 100 SE9       29.76S
TROY           LGT RAIN  67  67 100 SE9       29.73F
EUFAULA        LGT RAIN  67  64  90 S8        29.75F
$$




USA.gov is the U.S. government's official web portal to all federal, state and local government web resources and services.